Change the Weather History Date:

Sunday, January 26, 2014

  Actual Average Record
Temperature  
Mean Temperature 34 °F -  
Max Temperature 54 °F 37 °F 70 °F (1951)
Min Temperature 12 °F 12 °F -22 °F (1950)
Degree Days  
Heating Degree Days 32    
Moisture  
Dew Point 15 °F    
Average Humidity 46    
Maximum Humidity 69    
Minimum Humidity 32    
Precipitation  
Precipitation 0.00 in - - ()
Sea Level Pressure  
Sea Level Pressure 29.91 in    
Wind  
Wind Speed 17 mph (NNW)    
Max Wind Speed 40 mph    
Max Gust Speed 51 mph    
Visibility 10 miles    
Events Snow    
Averages and records for this station are not official NWS values.
T = Trace of Precipitation, MM = Missing Value Source: NWS Daily Summary

Daily Weather History Graph

Daily Weather History Graph

Search for Another Location

Airport or City:

Trip Planner

Search our weather history database for the weather conditions in past years. The results will help you decide how hot, cold, wet, or windy it might be!

Date:

Astronomy

Jan. 26, 2014 Rise Set
Actual Time 7:03 AM MST 4:56 PM MST
Civil Twilight 6:33 AM MST 5:26 PM MST
Nautical Twilight 6:00 AM MST 5:59 PM MST
Astronomical Twilight 5:27 AM MST 6:31 PM MST
Moon 2:42 AM MST (1/26) 12:47 PM MST (1/26)
Length of Visible Light 10h 52m
Length of Day
9h 53m
Waning Crescent, 23% of the Moon is Illuminated
Jan 26
Waning Crescent
Jan 30
New
Feb 6
First Quarter
Feb 14
Full
Feb 22
Last Quarter

Hourly Weather History & Observations

Time (MST) Temp. Windchill Dew Point Humidity Pressure Visibility Wind Dir Wind Speed Gust Speed Precip Events Conditions
12:15 AM 38.1 °F 30.2 °F 17.2 °F 43% 29.79 in 10.0 mi WSW 12.7 mph - N/A   Clear
12:35 AM 36.3 °F 27.5 °F 17.6 °F 47% 29.79 in 10.0 mi WSW 13.8 mph - N/A   Clear
12:55 AM 35.6 °F 29.9 °F 17.6 °F 48% 29.79 in 10.0 mi SW 6.9 mph - N/A   Clear
1:15 AM 32.7 °F 26.4 °F 17.6 °F 54% 29.79 in 10.0 mi West 6.9 mph - N/A   Clear
1:35 AM 33.1 °F 24.4 °F 18.3 °F 55% 29.78 in 10.0 mi West 11.5 mph - N/A   Clear
1:55 AM 32.2 °F 25.0 °F 18.3 °F 57% 29.79 in 10.0 mi West 8.1 mph - N/A   Clear
2:15 AM 45.0 °F 37.4 °F 21.9 °F 40% 29.79 in 10.0 mi NW 18.4 mph 23.0 mph N/A   Clear
2:35 AM 45.0 °F 37.9 °F 21.7 °F 40% 29.79 in 10.0 mi NW 16.1 mph - N/A   Clear
2:55 AM 43.7 °F 36.0 °F 21.9 °F 42% 29.79 in 10.0 mi NW 17.3 mph - N/A   Clear
3:15 AM 43.0 °F 34.8 °F 22.8 °F 45% 29.79 in 10.0 mi NW 18.4 mph - N/A   Clear
3:35 AM 43.7 °F 36.0 °F 23.9 °F 46% 29.78 in 10.0 mi NW 17.3 mph 24.2 mph N/A   Clear
3:55 AM 42.8 °F 35.1 °F 24.3 °F 48% 29.79 in 10.0 mi NW 16.1 mph 25.3 mph N/A   Clear
4:15 AM 42.8 °F 34.8 °F 24.8 °F 49% 29.78 in 10.0 mi NW 17.3 mph 23.0 mph N/A   Clear
4:35 AM 43.0 °F 34.5 °F 24.3 °F 48% 29.78 in 10.0 mi NW 19.6 mph 24.2 mph N/A   Clear
4:55 AM 41.5 °F 33.5 °F 24.6 °F 51% 29.78 in 10.0 mi NW 16.1 mph - N/A   Clear
5:15 AM 41.2 °F 33.0 °F 24.8 °F 52% 29.78 in 10.0 mi NW 16.1 mph - N/A   Clear
5:35 AM 39.6 °F 31.7 °F 24.8 °F 56% 29.79 in 10.0 mi NW 13.8 mph - N/A   Clear
5:55 AM 38.1 °F 32.3 °F 24.4 °F 58% 29.78 in 10.0 mi NW 8.1 mph - N/A   Clear
6:15 AM 37.8 °F 30.7 °F 24.4 °F 59% 29.78 in 10.0 mi NW 10.4 mph - N/A   Clear
6:35 AM 36.5 °F 31.0 °F 23.9 °F 60% 29.78 in 10.0 mi WNW 6.9 mph - N/A   Clear
6:55 AM 32.4 °F 26.0 °F 22.6 °F 67% 29.78 in 10.0 mi West 6.9 mph - N/A   Clear
7:15 AM 31.6 °F 27.0 °F 22.3 °F 68% 29.77 in 10.0 mi West 4.6 mph - N/A   Clear
7:35 AM 31.8 °F 27.3 °F 22.8 °F 69% 29.77 in 10.0 mi SW 4.6 mph - N/A   Clear
7:55 AM 33.8 °F 27.0 °F 23.9 °F 67% 29.77 in 10.0 mi West 8.1 mph - N/A   Clear
8:15 AM 41.9 °F 34.6 °F 25.3 °F 52% 29.76 in 10.0 mi NW 13.8 mph - N/A   Clear
8:35 AM 44.2 °F 36.4 °F 25.0 °F 47% 29.76 in 10.0 mi WNW 18.4 mph 23.0 mph N/A   Clear
8:55 AM 45.7 °F 38.3 °F 24.8 °F 44% 29.76 in 10.0 mi WNW 18.4 mph 23.0 mph N/A   Clear
9:15 AM 48.2 °F - 24.4 °F 39% 29.76 in 10.0 mi WNW 24.2 mph 31.1 mph N/A   Clear
9:35 AM 50.0 °F - 23.9 °F 36% 29.76 in 10.0 mi NW 20.7 mph 31.1 mph N/A   Clear
9:55 AM 50.0 °F - 23.5 °F 36% 29.76 in 10.0 mi NW 24.2 mph 29.9 mph N/A   Clear
10:15 AM 51.3 °F - 23.4 °F 34% 29.75 in 10.0 mi NW 27.6 mph 33.4 mph N/A   Clear
10:35 AM 51.8 °F - 23.7 °F 33% 29.75 in 10.0 mi NW 24.2 mph 32.2 mph N/A   Clear
10:55 AM 53.2 °F - 24.3 °F 32% 29.75 in 10.0 mi NNW 25.3 mph 31.1 mph N/A   Clear
11:15 AM 52.7 °F - 24.6 °F 34% 29.75 in 10.0 mi NNW 21.9 mph 31.1 mph N/A   Clear
11:35 AM 53.2 °F - 24.6 °F 33% 29.75 in 10.0 mi NNW 24.2 mph 34.5 mph N/A   Clear
11:55 AM 54.3 °F - 25.3 °F 33% 29.74 in 10.0 mi NW 25.3 mph 33.4 mph N/A   Clear
12:15 PM 54.1 °F - 25.2 °F 33% 29.74 in 10.0 mi NNW 31.1 mph 40.3 mph N/A   Scattered Clouds
12:35 PM 51.3 °F - 25.7 °F 37% 29.75 in 10.0 mi NW 33.4 mph 42.6 mph N/A   Mostly Cloudy
12:55 PM 50.5 °F - 22.1 °F 33% 29.76 in 10.0 mi NW 35.7 mph 44.9 mph N/A   Scattered Clouds
1:15 PM 50.0 °F - 22.1 °F 33% 29.77 in 10.0 mi NW 26.5 mph 46.0 mph N/A   Mostly Cloudy
1:35 PM 48.2 °F - 22.6 °F 37% 29.78 in 10.0 mi NNW 28.8 mph 39.1 mph N/A   Overcast
1:55 PM 47.8 °F - 21.9 °F 36% 29.79 in 10.0 mi NNW 29.9 mph 42.6 mph N/A   Mostly Cloudy
2:15 PM 41.4 °F 29.1 °F 24.3 °F 51% 29.83 in 5.0 mi NNE 38.0 mph 50.6 mph N/A   Haze
2:35 PM 32.5 °F 17.1 °F 20.8 °F 62% 29.85 in 10.0 mi North 36.8 mph 46.0 mph N/A   Mostly Cloudy
2:55 PM 32.0 °F 16.7 °F 20.3 °F 62% 29.89 in 10.0 mi North 34.5 mph 44.9 mph N/A   Overcast
3:15 PM 30.7 °F 14.0 °F 20.3 °F 65% 29.92 in 2.0 mi North 40.3 mph 44.9 mph N/A Snow Light Snow
3:35 PM 28.8 °F 13.2 °F 19.4 °F 68% 29.95 in 3.0 mi North 29.9 mph 41.4 mph N/A Snow Light Snow
3:55 PM 28.9 °F 15.1 °F 18.7 °F 66% 29.97 in 10.0 mi North 23.0 mph 33.4 mph N/A   Overcast
4:15 PM 28.9 °F 15.8 °F 18.9 °F 66% 29.99 in 10.0 mi North 20.7 mph - N/A   Overcast
4:35 PM 27.5 °F 12.3 °F 13.5 °F 56% 30.01 in 10.0 mi North 26.5 mph 35.7 mph N/A   Overcast
4:55 PM 26.8 °F 10.3 °F 7.2 °F 44% 30.02 in 10.0 mi North 31.1 mph 36.8 mph N/A   Overcast
5:15 PM 25.5 °F 10.0 °F 7.2 °F 46% 30.04 in 10.0 mi North 25.3 mph 34.5 mph N/A   Overcast
5:35 PM 23.9 °F 9.5 °F 3.9 °F 42% 30.08 in 10.0 mi North 19.6 mph 32.2 mph N/A   Overcast
5:55 PM 23.0 °F 6.6 °F 3.2 °F 43% 30.08 in 10.0 mi North 25.3 mph 29.9 mph N/A   Overcast
6:15 PM 21.9 °F 4.5 °F 2.5 °F 43% 30.09 in 10.0 mi North 27.6 mph 34.5 mph N/A   Overcast
6:35 PM 21.0 °F 4.6 °F 2.7 °F 45% 30.12 in 10.0 mi North 23.0 mph 33.4 mph N/A   Overcast
6:55 PM 19.6 °F 3.5 °F 3.0 °F 49% 30.12 in 10.0 mi North 20.7 mph 31.1 mph N/A   Overcast
7:15 PM 19.0 °F 0.6 °F 0.9 °F 45% 30.12 in 10.0 mi North 27.6 mph 34.5 mph N/A   Overcast
7:35 PM 17.6 °F -0.3 °F -3.6 °F 39% 30.14 in 10.0 mi North 24.2 mph 36.8 mph N/A   Mostly Cloudy
7:55 PM 17.6 °F 0.5 °F -6.2 °F 35% 30.15 in 10.0 mi North 21.9 mph 33.4 mph N/A   Mostly Cloudy
8:15 PM 16.7 °F 0.1 °F -5.6 °F 37% 30.17 in 10.0 mi North 19.6 mph 27.6 mph N/A   Mostly Cloudy
8:35 PM 16.5 °F -1.7 °F -8.0 °F 33% 30.18 in 10.0 mi North 24.2 mph 28.8 mph N/A   Mostly Cloudy
8:55 PM 16.0 °F 0.6 °F -7.6 °F 35% 30.20 in 10.0 mi North 16.1 mph 26.5 mph N/A   Overcast
9:15 PM 15.4 °F -1.1 °F -9.4 °F 33% 30.22 in 10.0 mi North 18.4 mph 27.6 mph N/A   Mostly Cloudy
9:35 PM 15.6 °F 0.1 °F -8.5 °F 34% 30.22 in 10.0 mi North 16.1 mph 23.0 mph N/A   Overcast
9:55 PM 15.1 °F -0.1 °F -8.0 °F 36% 30.23 in 10.0 mi North 15.0 mph - N/A   Mostly Cloudy
10:15 PM 15.4 °F 2.3 °F -6.5 °F 37% 30.24 in 10.0 mi North 11.5 mph - N/A   Overcast
10:35 PM 15.3 °F 2.8 °F -5.8 °F 39% 30.25 in 10.0 mi North 10.4 mph - N/A   Overcast
10:55 PM 15.4 °F 1.6 °F -6.2 °F 38% 30.25 in 10.0 mi North 12.7 mph - N/A   Overcast
11:15 PM 14.5 °F 1.9 °F -5.6 °F 41% 30.26 in 10.0 mi North 10.4 mph - N/A   Overcast
11:35 PM 13.5 °F 2.2 °F -5.8 °F 42% 30.25 in 10.0 mi North 8.1 mph - N/A   Overcast
11:55 PM 12.9 °F 2.6 °F -5.3 °F 44% 30.26 in 10.0 mi North 6.9 mph - N/A   Overcast